Theta_e
317 318 319 319 318 318 318 318 319 319 318 318 319 319 319 319 319 318 322 323 324 324 324 324 324 324 324 325 328 330 330 331 329 325 327 331 336 337 342 342 342 347 348 348
319 320 319 318 318 318 319 319 319 318 318 318 319 320 320 318 318 321 322 323 323 323 324 324 324 324 324 324 325 328 331 331 328 325 329 333 332 333 332 335 339 346 345 347
319 318 317 317 318 318 319 319 318 318 318 319 319 319 319 317 318 321 321 322 323 324 324 324 324 324 323 324 324 326 329 332 328 325 325 335 343 343 342 339 342 343 346 344
319 318 317 318 318 318 318 318 317 318 319 320 318 319 319 317 319 320 321 323 323 324 324 324 324 323 323 323 323 324 327 331 330 326 326 334 340 337 332 337 335 338 343 334
319 318 318 318 318 317 318 318 318 318 320 319 318 319 319 317 318 320 318 321 323 321 320 322 323 322 322 323 322 322 324 329 332 332 331 334 339 335 337 329 335 336 330 334
318 317 317 318 317 318 317 318 320 320 318 319 319 317 316 317 319 318 317 319 322 321 320 319 319 320 320 322 323 321 321 324 330 333 334 336 338 336 328 330 330 329 329 331
319 318 317 317 318 318 319 320 322 319 319 318 318 318 319 318 317 317 317 320 321 321 319 319 319 320 320 321 322 322 321 321 325 332 334 335 341 341 336 335 330 329 329 329
321 321 318 317 317 318 319 320 317 320 318 318 318 318 320 318 319 319 320 320 320 319 319 319 319 319 320 320 322 321 321 320 321 326 333 335 337 334 333 333 332 331 331 334
321 321 318 317 317 318 319 319 318 319 319 321 318 317 317 317 318 319 319 318 318 318 318 318 318 319 321 321 319 320 320 319 319 321 326 332 334 336 338 339 340 337 338 338
320 322 318 317 317 317 318 317 319 321 324 320 317 317 316 317 316 317 316 317 317 317 317 317 320 321 320 321 318 320 319 318 318 318 321 326 330 332 334 335 334 333 332 331
319 319 318 318 317 316 316 317 317 318 318 321 321 317 316 316 316 317 316 316 317 317 317 317 316 315 315 319 318 318 318 317 316 316 318 322 325 326 327 329 330 330 330 331
318 318 320 317 315 315 314 315 316 324 321 320 324 325 316 317 317 318 317 317 317 317 317 316 315 314 314 314 313 314 317 315 315 316 316 319 321 323 325 326 326 327 327 328
316 319 321 316 316 315 315 314 314 315 317 320 323 319 315 317 318 318 319 318 318 318 316 316 316 315 314 314 314 313 313 315 315 313 315 317 321 323 324 324 324 324 322 320
315 319 318 319 316 315 316 314 315 316 323 319 317 315 316 316 318 318 318 316 315 316 315 315 314 314 313 312 312 313 313 313 313 314 315 317 321 321 322 324 321 315 314 311
317 321 315 315 314 314 315 315 314 315 316 320 317 317 316 319 317 317 317 317 315 315 315 314 314 314 311 310 311 311 310 311 312 312 314 317 318 318 319 316 313 312 309 307
314 317 316 318 314 314 315 314 313 313 315 315 316 317 318 317 317 315 315 314 314 314 314 314 313 312 310 310 310 309 309 309 310 312 313 314 317 317 315 311 308 307 304 303
317 319 320 317 314 314 317 313 313 313 314 317 319 318 316 316 316 316 315 314 313 313 313 312 312 310 309 309 309 308 308 308 309 311 313 313 316 315 310 307 305 302 301 301
317 314 318 319 316 319 313 312 312 314 316 315 315 316 316 314 314 313 313 313 313 312 311 311 309 307 307 307 308 308 308 308 309 311 313 314 315 310 306 304 301 300 301 300
317 317 319 318 319 315 314 317 315 315 315 315 316 314 313 313 312 312 313 311 311 310 308 308 306 306 306 306 306 308 308 308 309 311 312 314 312 305 302 301 300 300 300 299
316 316 317 316 315 315 315 316 313 313 317 315 314 314 313 314 312 311 309 308 309 308 306 306 305 305 305 306 307 308 307 308 308 310 313 311 305 302 301 300 299 299 298 298
317 315 317 316 317 315 313 314 312 316 318 315 313 313 313 313 312 311 309 308 307 307 306 305 305 305 306 305 306 306 307 307 307 311 309 303 302 300 299 299 298 299 299 299
313 315 315 315 315 316 313 313 315 315 314 313 312 312 311 310 311 309 308 308 307 306 305 305 304 305 304 304 306 306 307 307 308 308 303 301 300 299 299 299 299 299 299 300
315 314 316 314 315 314 313 314 314 313 314 312 311 311 310 310 309 308 308 307 306 304 304 304 304 303 305 303 304 305 307 307 308 304 300 300 299 299 299 299 299 300 302 303
312 311 315 313 312 312 312 312 312 311 309 310 310 309 308 308 307 306 304 304 304 302 303 303 303 303 302 303 305 305 307 307 305 301 299 299 299 300 299 300 302 303 303 303
313 312 313 314 313 312 313 312 312 311 310 308 308 307 307 305 304 303 302 302 301 300 300 301 301 302 303 304 305 306 306 304 301 300 300 299 300 300 301 302 303 302 302 303
313 314 316 317 313 314 314 313 311 310 309 308 307 305 304 303 302 301 300 299 299 299 299 300 301 302 303 305 306 306 305 302 301 300 300 300 299 299 300 301 300 300 301 301
Wind_Speed
3 3 7 6 5 5 7 10 13 12 11 11 13 18 18 17 10 6 3 4 6 8 8 11 13 15 18 20 21 21 21 20 17 17 19 20 22 23 21 20 18 17 16 15
5 6 5 3 4 8 9 11 12 10 6 13 16 24 19 10 1 1 3 4 7 8 10 12 15 17 19 21 24 25 23 20 17 16 20 20 20 23 21 18 16 15 16 16
7 5 2 4 9 11 10 10 12 13 17 17 15 19 2 7 4 3 1 3 6 7 9 11 14 17 20 24 26 28 28 23 17 14 17 17 15 14 12 14 14 15 17 17
4 4 5 9 11 8 14 7 9 15 16 15 16 9 11 5 8 6 3 5 6 8 9 11 14 17 19 21 24 27 30 27 18 11 15 17 18 20 19 12 9 10 14 15
4 6 10 11 7 6 11 9 14 18 21 16 16 7 5 3 10 11 5 5 5 8 10 12 13 16 18 20 23 26 30 29 24 13 10 13 17 15 14 13 10 11 13 16
11 3 6 5 3 5 9 13 21 11 8 10 6 6 8 5 7 10 11 4 4 7 12 13 15 15 18 18 22 22 27 30 30 22 10 9 12 15 15 13 12 10 18 17
9 1 2 4 8 7 8 14 9 7 8 10 3 9 14 16 9 9 8 6 4 10 14 15 16 16 17 16 19 21 23 28 30 26 15 7 9 10 14 8 10 12 15 15
3 3 1 3 8 11 14 6 7 11 13 19 18 9 5 5 5 5 3 4 7 12 15 16 17 16 17 17 17 19 20 24 29 29 21 13 8 9 7 3 7 11 14 15
7 4 4 11 12 10 3 7 8 12 18 16 12 11 11 5 5 6 8 5 11 14 17 18 18 12 12 14 15 17 18 22 27 30 28 17 13 12 10 7 6 6 8 9
4 9 4 2 7 12 11 9 7 7 7 14 15 22 15 8 12 5 11 8 12 13 13 13 14 13 15 11 15 13 16 19 24 29 27 22 17 17 14 10 10 11 10 10
8 4 5 11 9 12 9 11 11 10 8 14 16 9 17 22 19 11 10 13 18 12 9 9 11 14 13 12 12 16 15 15 23 31 28 22 19 17 15 15 16 15 14 14
5 6 11 17 12 4 7 9 10 9 14 12 14 18 22 12 17 8 10 15 17 10 6 9 10 15 16 16 17 15 15 18 13 21 27 25 21 21 20 19 18 16 16 15
5 4 8 7 6 6 7 9 13 15 13 17 15 15 19 15 8 14 18 14 18 6 7 9 9 13 14 16 17 18 16 13 13 19 27 23 21 21 20 18 17 17 15 14
5 5 10 11 16 14 17 16 14 14 9 17 19 24 22 15 18 17 15 11 13 12 8 10 11 13 16 17 16 15 16 14 13 13 22 18 19 19 18 16 15 14 14 13
3 7 12 15 16 17 19 19 16 16 17 15 22 21 19 13 11 15 14 10 8 14 13 13 14 13 22 26 22 16 15 14 14 14 16 15 15 16 14 12 11 13 14 13
4 4 9 14 16 11 17 20 19 14 11 15 17 17 7 10 11 12 14 14 15 17 18 19 16 20 26 24 22 16 17 17 16 15 14 15 14 11 9 9 10 12 13 15
2 3 5 8 7 17 12 5 3 11 13 10 14 14 15 12 12 15 16 17 19 17 16 19 19 24 25 22 18 16 20 17 16 16 12 14 12 7 6 7 11 13 18 22
4 2 5 6 11 4 3 10 11 9 12 13 15 13 10 13 18 22 20 15 16 20 20 20 22 25 22 23 23 17 16 15 14 12 10 11 7 5 8 11 15 18 21 20
12 5 2 3 6 17 17 2 5 10 17 17 6 11 17 21 20 20 16 18 21 17 20 19 20 24 22 21 20 15 13 11 13 9 9 4 4 7 11 16 22 20 22 22
10 7 4 6 5 5 7 2 5 14 16 6 11 19 21 20 14 16 21 20 19 20 21 23 24 22 21 20 17 14 9 9 9 9 2 4 8 11 16 23 23 23 24 23
8 8 11 9 7 10 9 2 9 8 4 19 19 19 20 18 16 22 23 20 24 20 19 25 22 21 20 18 14 13 10 9 9 2 7 9 13 20 24 26 24 24 23 24
5 4 4 5 6 8 5 10 9 11 18 19 18 23 22 24 24 24 23 21 19 21 21 23 24 16 22 17 9 11 10 8 6 10 12 17 22 23 26 27 22 23 24 23
5 8 3 5 6 17 21 19 16 15 19 15 20 21 22 22 24 25 23 17 13 20 25 23 15 20 10 13 10 10 10 8 12 15 18 23 24 26 24 23 23 20 15 18
10 9 8 11 8 13 19 18 17 11 15 20 18 22 19 20 23 21 14 19 16 23 21 20 14 14 15 9 8 11 9 14 16 21 23 24 25 22 23 24 19 20 19 19
8 8 12 16 19 16 14 16 19 19 14 18 20 18 19 15 18 16 17 17 19 21 21 16 15 13 10 9 11 13 16 18 23 24 24 25 24 23 21 19 15 17 23 19
10 15 9 10 15 14 19 19 18 16 20 18 18 17 15 20 19 16 15 20 21 21 21 17 15 13 11 13 18 18 21 23 26 25 24 24 24 21 22 25 26 27 25 24
Wind_Direction
88 220 48 42 30 352 314 307 304 309 339 311 302 298 300 304 294 258 330 349 10 9 8 7 10 6 2 358 352 340 326 316 297 260 235 232 230 231 228 236 240 236 235 239
223 87 69 18 335 319 311 301 303 314 322 316 304 299 296 297 286 259 339 354 357 357 1 3 3 5 3 1 357 351 342 327 303 264 242 236 239 233 228 231 237 240 239 233
313 76 105 305 318 315 309 308 320 315 313 287 288 290 239 173 225 176 356 329 347 357 352 357 358 3 1 3 359 357 351 341 322 277 248 235 235 241 220 225 233 243 240 238
287 75 269 301 302 315 302 16 301 296 305 303 317 291 255 199 216 219 304 321 343 351 344 344 342 352 355 1 1 359 358 354 342 308 251 231 230 224 223 231 227 242 239 239
23 293 301 299 333 313 305 319 294 290 295 294 278 239 91 142 238 221 356 334 336 360 352 348 342 339 338 350 359 1 360 360 356 340 273 242 235 229 205 198 184 208 239 242
282 331 279 331 302 288 313 289 294 274 264 259 77 279 296 324 250 285 319 328 330 347 341 341 335 330 339 343 350 356 2 359 0 359 332 263 255 237 209 202 208 221 238 250
311 244 151 273 283 204 260 315 314 292 268 299 85 271 273 297 314 287 307 328 322 339 330 334 330 334 327 342 349 350 0 1 0 1 359 319 272 267 256 244 240 247 261 268
334 215 253 116 313 311 295 299 292 301 309 305 305 273 45 0 330 323 320 302 314 336 332 326 324 331 331 339 340 350 358 5 360 357 1 5 339 282 274 283 294 272 277 295
310 229 265 268 286 285 73 256 358 286 278 272 274 280 219 249 233 246 274 325 327 337 327 328 320 325 338 349 343 354 357 4 9 356 352 353 8 5 7 13 326 335 317 328
354 294 301 30 290 254 250 334 284 259 295 298 306 306 294 6 330 266 316 325 323 324 337 339 341 339 334 335 5 337 356 3 5 352 348 351 358 4 4 2 359 11 357 336
307 254 277 275 271 301 280 249 234 260 284 288 296 286 332 327 306 312 299 330 324 329 318 329 346 344 346 350 346 356 352 347 2 340 334 345 357 355 0 5 0 357 344 339
14 296 286 289 310 344 257 278 295 277 285 290 292 282 287 338 344 282 356 299 316 312 333 338 336 328 332 342 345 339 339 352 328 325 323 332 347 347 357 4 360 353 348 351
358 269 304 293 156 169 245 298 296 281 285 276 278 280 300 321 241 301 339 352 333 296 313 316 319 321 327 329 330 333 325 312 315 313 310 321 337 348 351 354 356 2 2 8
231 259 244 268 304 312 292 288 284 279 271 279 275 296 306 316 342 329 343 335 321 320 325 311 309 324 326 320 320 324 329 321 312 304 302 321 337 345 347 354 7 18 15 25
281 257 271 275 287 286 284 285 284 277 278 275 288 289 309 344 336 311 318 289 292 285 304 319 321 326 324 318 307 302 305 312 314 317 312 330 340 344 358 8 15 21 32 47
284 275 290 286 277 285 291 286 278 270 267 284 297 299 353 327 317 327 328 322 308 308 307 317 321 321 320 316 315 326 303 300 304 305 314 326 326 354 11 25 39 52 61 70
276 286 298 273 337 311 285 312 314 300 286 307 302 303 328 323 316 320 312 309 306 309 314 306 319 321 321 318 313 308 302 303 293 292 302 313 335 19 51 74 74 76 83 84
166 225 276 294 307 265 56 313 293 291 288 292 299 334 332 322 315 316 311 332 325 322 323 318 319 313 311 309 310 310 306 307 293 282 289 309 1 84 99 93 91 93 90 83
215 227 292 267 291 278 267 117 345 326 302 290 345 320 314 321 320 304 322 317 305 315 310 312 306 305 305 303 301 301 305 303 297 280 266 324 106 122 113 102 100 96 92 84
196 241 240 295 281 282 49 150 332 308 291 81 334 323 325 324 303 301 311 306 298 308 312 308 306 298 296 292 297 307 290 289 296 275 357 95 125 127 111 108 104 101 94 88
204 214 234 245 237 270 301 17 305 287 329 323 328 314 310 309 295 303 311 304 307 306 297 305 290 290 283 293 286 287 287 271 280 138 107 114 122 113 113 108 106 99 94 85
250 273 240 243 264 279 40 306 320 304 308 310 319 307 312 303 303 309 308 309 311 304 290 286 297 284 296 290 268 280 257 248 235 123 114 112 114 113 112 110 103 98 92 91
257 222 269 243 266 317 313 300 307 311 299 315 301 310 305 302 306 309 305 303 307 298 289 293 279 292 278 307 276 238 228 210 136 115 112 114 112 116 113 108 102 93 92 88
263 256 253 280 263 284 303 304 308 333 311 288 295 300 300 300 309 304 307 302 300 304 300 303 293 286 281 262 232 219 183 141 124 119 117 115 115 107 101 101 92 92 93 93
263 286 268 274 287 294 294 303 313 306 306 297 300 309 316 309 299 303 302 302 301 297 289 283 275 262 249 223 197 173 135 131 120 120 121 111 107 100 97 83 82 76 76 81
247 260 264 269 300 302 303 314 313 307 307 303 324 313 302 305 306 306 301 298 292 288 283 272 253 230 211 187 164 141 137 134 128 125 113 114 109 105 101 99 87 88 90 87